[[{"header":{"parameterUnit":"m.s-1","parameterCategory":1,"la1":30.2991,"la2":30.254,"lo1":-89.0895,"lo2":-89.0444,"dy":0.0017,"dx":0.0017,"nx":28,"ny":28,"refTime":"2023-07-17T21:00:00:Z","depth":0,"parameterNumber":2,"parameterNumberName":"U-component_of_WINDS"},"data":[0,0,0,0,0,0,0,0,0,0,0,0,0,0,0,0,0,0,0,0,0,0,0,0,0,0,0,0,0,0,0,0,0,0,0,0,0,0,0,0,0,0,0,0,0,0,0,0,0,0,0,0,0,0,0,0,0,0,1.3009,1.3009,0,1.3072,1.3073,1.3073,1.3082,1.3081,1.3081,1.308,1.315,1.3152,1.3155,0,0,0,0,0,0,0,0,0,0,0,0,0,1.2899,1.2901,1.3009,1.3009,1.301,1.3072,1.3073,1.3074,1.3082,1.3081,1.3081,1.308,1.3149,1.3152,1.3155,0,0,0,0,0,0,0,0,0,0,0,0,0,1.2953,1.2902,1.3008,1.3022,1.3024,1.3072,1.3073,1.3074,1.3082,1.3081,1.3081,1.308,1.3148,1.3152,1.3155,1.3196,0,0,1.3167,1.3168,0,0,0,0,0,0,0,0,1.295,1.2957,1.3019,1.3021,1.3023,1.3068,1.306,1.3115,1.3083,1.306,1.308,1.3079,1.3124,1.3129,1.3143,1.3199,1.3202,1.3167,1.3169,1.3171,1.3172,0,0,0,0,0,0,0,1.2947,1.2955,1.3034,1.302,1.3022,1.3026,1.3033,1.307,1.3097,1.3062,1.3063,1.307,1.3125,1.314,1.3145,1.3203,1.3167,1.317,1.3172,1.3174,1.3296,1.3297,0,0,0,0,0,0,1.294,1.2952,1.3032,1.3036,1.2983,1.3029,1.3036,1.3055,1.3096,1.3101,1.3071,1.307,1.3134,1.3141,1.3148,1.3198,1.3171,1.3174,1.3176,1.3294,1.3296,1.3297,0,0,0,0,0,0,1.2937,1.2947,1.3029,1.2994,1.3005,1.3031,1.3052,1.3056,1.3071,1.3102,1.3108,1.3081,1.3134,1.3143,1.3183,1.32,1.3176,1.3179,1.3293,1.3295,1.3296,1.3298,0,0,0,0,0,0,1.2934,1.2946,1.2961,1.2994,1.3006,1.3063,1.3053,1.3058,1.3077,1.3077,1.3114,1.3119,1.3134,1.3178,1.3187,1.3205,1.3182,1.3292,1.3294,1.3296,1.3296,1.3299,1.3302,0,0,0,0,0,1.293,1.296,1.2961,1.2971,1.3025,1.3064,1.3071,1.3086,1.3078,1.3094,1.3114,1.3118,1.3197,1.3182,1.3192,1.3211,1.3291,1.3293,1.3296,1.3295,1.3299,1.3302,0,0,0,0,0,0,1.2929,1.2964,1.2966,1.3007,1.3032,1.3065,1.3085,1.3089,1.3118,1.3117,1.3136,1.3144,1.3184,1.3202,1.3185,1.3253,1.3243,1.3248,1.3239,1.3243,1.3246,1.324,1.3185,0,0,0,0,0,1.2933,1.296,1.299,1.3023,1.3035,1.3058,1.3075,1.3085,1.3112,1.3123,1.3146,1.3174,1.3205,1.3225,1.3255,1.3299,1.3307,1.3317,1.332,1.3322,1.3325,1.335,1.3354,1.3305,1.3305,1.3305,0,0,1.2943,1.2965,1.2982,1.3024,1.3044,1.3073,1.3067,1.3098,1.3119,1.3128,1.3168,1.3186,1.3218,1.326,1.328,1.3276,1.3341,1.3325,1.3326,1.3329,1.3353,1.3357,1.3361,1.3306,1.3306,1.3306,0,0,1.2975,1.2994,1.3024,1.3044,1.3074,1.3089,1.3096,1.3128,1.314,1.3179,1.3186,1.3213,1.3267,1.3289,1.3307,1.3347,1.3352,1.3357,1.337,1.3394,1.3398,1.3401,1.3415,1.342,1.336,1.336,1.336,0,1.2983,1.3025,1.3039,1.3069,1.3087,1.3095,1.3125,1.3145,1.3184,1.3198,1.3192,1.3259,1.3281,1.3328,1.3338,1.3353,1.3362,1.3352,1.3396,1.3399,1.3403,1.3416,1.3422,1.3361,1.3361,1.3361,1.3361,0,1.3034,1.3063,1.3083,1.3119,1.314,1.317,1.319,1.3209,1.3217,1.3233,1.3273,1.33,1.3335,1.3348,1.3356,1.3396,1.3393,1.3391,1.3382,1.3408,1.3421,1.3426,1.3361,1.3361,1.3361,1.3361,0,0,1.3067,1.3109,1.3116,1.3132,1.3166,1.319,1.3221,1.3254,1.327,1.3298,1.3324,1.3369,1.3367,1.3388,1.3399,1.342,1.3449,1.3416,1.3417,1.3421,1.3495,1.3495,1.3501,1.3452,1.3453,1.3454,1.3492,0,1.3102,1.3155,1.3169,1.3215,1.3242,1.325,1.3277,1.3301,1.3317,1.3343,1.3361,1.3392,1.3388,1.34,1.3421,1.3441,1.3464,1.3439,1.3478,1.3479,1.3469,1.3508,1.3509,1.3543,1.3497,1.3498,1.3499,0,1.315,1.3176,1.3225,1.3255,1.3267,1.329,1.3322,1.3347,1.3375,1.3385,1.3407,1.3416,1.345,1.3439,1.3486,1.3468,1.3485,1.3497,1.3499,1.3503,1.349,1.3513,1.3555,1.356,1.3507,1.3506,1.3506,0,1.3169,1.3217,1.3251,1.3265,1.3301,1.3317,1.3334,1.3361,1.3379,1.3407,1.342,1.3452,1.347,1.3495,1.3513,1.3503,1.3558,1.3549,1.3568,1.3567,1.3579,1.3578,1.3624,1.359,1.359,1.359,1.359,0,1.3207,1.3236,1.326,1.3282,1.3315,1.333,1.3363,1.338,1.3404,1.3429,1.3439,1.3463,1.3485,1.3512,1.3527,1.3563,1.3571,1.3581,1.3584,1.358,1.3578,1.3591,1.3589,1.3592,1.3591,1.3591,1.3591,0,1.3233,1.325,1.3289,1.3319,1.3328,1.3351,1.3377,1.3399,1.3414,1.3447,1.3455,1.348,1.3513,1.3533,1.3575,1.3585,1.3625,1.3627,1.3615,1.3616,1.3634,1.3632,1.3689,1.3697,1.3659,1.3659,1.3659,0,1.3256,1.3278,1.3311,1.3328,1.3343,1.3371,1.339,1.3407,1.3426,1.3459,1.3477,1.351,1.3537,1.3589,1.3612,1.3644,1.3648,1.3665,1.3653,1.3647,1.3648,1.3646,1.3648,1.3668,1.3668,1.3668,1.3668,0,1.3295,1.3302,1.3328,1.3357,1.3379,1.3403,1.3427,1.3441,1.3462,1.3484,1.3516,1.3537,1.3579,1.3612,1.3646,1.3664,1.367,1.3672,1.3678,1.3674,1.3665,1.367,1.362,1.3671,1.3671,1.367,1.367,1.367,1.332,1.334,1.3365,1.3394,1.3414,1.3436,1.3458,1.3475,1.3502,1.3536,1.3545,1.3579,1.3607,1.3653,1.3672,1.3699,1.3697,1.3706,1.3708,1.371,1.371,1.3661,1.3706,1.3706,1.3706,1.3706,1.3706,0,1.3359,1.3375,1.3402,1.3434,1.3457,1.3459,1.3486,1.3505,1.3535,1.3559,1.3585,1.3623,1.3655,1.3679,1.3712,1.3729,1.3733,1.3737,1.3736,1.374,1.371,1.3702,1.3734,1.3734,1.3734,1.3734,1.3734,1.3734,1.3381,1.3415,1.3426,1.347,1.3486,1.3519,1.3534,1.3555,1.3574,1.3615,1.3641,1.3656,1.3681,1.3715,1.3745,1.3751,1.3763,1.3767,1.3774,1.3745,1.3742,1.3739,1.3731,1.3769,1.3769,1.3801,1.3801,1.3802]},{"header":{"parameterUnit":"m.s-1","parameterCategory":1,"la1":30.2991,"la2":30.254,"lo1":-89.0895,"lo2":-89.0444,"dy":0.0017,"dx":0.0017,"nx":28,"ny":28,"refTime":"2023-07-17T21:00:00:Z","depth":0,"parameterNumber":3,"parameterNumberName":"V-component_of_WINDS"},"data":[0,0,0,0,0,0,0,0,0,0,0,0,0,0,0,0,0,0,0,0,0,0,0,0,0,0,0,0,0,0,0,0,0,0,0,0,0,0,0,0,0,0,0,0,0,0,0,0,0,0,0,0,0,0,0,0,0,0,3.0514,3.0514,0,3.0513,3.0513,3.0513,3.0544,3.0544,3.0545,3.0546,3.0542,3.0542,3.0541,0,0,0,0,0,0,0,0,0,0,0,0,0,3.0537,3.0537,3.0514,3.0514,3.0514,3.0513,3.0513,3.0513,3.0543,3.0544,3.0545,3.0546,3.0543,3.0542,3.0541,0,0,0,0,0,0,0,0,0,0,0,0,0,3.0531,3.0536,3.0514,3.0529,3.053,3.0513,3.0513,3.0513,3.0543,3.0545,3.0546,3.0547,3.0543,3.0542,3.0541,3.0508,0,0,3.0537,3.0536,0,0,0,0,0,0,0,0,3.0531,3.053,3.0527,3.0528,3.0529,3.053,3.052,3.0512,3.0543,3.0538,3.0546,3.0547,3.0537,3.0536,3.0533,3.0508,3.0508,3.0536,3.0536,3.0535,3.0535,0,0,0,0,0,0,0,3.0532,3.053,3.0514,3.0527,3.0528,3.0534,3.0535,3.0519,3.0531,3.0539,3.0541,3.0541,3.0538,3.0535,3.0534,3.0508,3.0537,3.0535,3.0535,3.0534,3.0454,3.0452,0,0,0,0,0,0,3.053,3.053,3.0514,3.0514,3.0533,3.0533,3.0534,3.0528,3.0531,3.0533,3.054,3.0542,3.0536,3.0535,3.0534,3.0494,3.0535,3.0534,3.0533,3.0455,3.0453,3.0452,0,0,0,0,0,0,3.0531,3.0529,3.0514,3.0523,3.0521,3.0531,3.0525,3.0528,3.0525,3.0532,3.0534,3.0534,3.0537,3.0535,3.0514,3.0495,3.0533,3.0532,3.0456,3.0454,3.0452,3.0416,0,0,0,0,0,0,3.0531,3.0529,3.0517,3.0522,3.0521,3.0495,3.0524,3.0527,3.0523,3.0526,3.0527,3.0529,3.0538,3.0516,3.0513,3.0493,3.0531,3.0458,3.0456,3.0453,3.0419,3.0413,3.0408,0,0,0,0,0,3.0532,3.0507,3.0517,3.0515,3.0507,3.0494,3.0493,3.0505,3.0521,3.0509,3.0513,3.0528,3.0498,3.0513,3.051,3.049,3.0459,3.0456,3.0453,3.0422,3.0414,3.0408,0,0,0,0,0,0,3.0499,3.0508,3.0519,3.0495,3.0494,3.0499,3.0485,3.0498,3.0491,3.0494,3.0509,3.0509,3.0484,3.0485,3.0503,3.0458,3.0481,3.0477,3.0458,3.0451,3.0446,3.0445,3.053,0,0,0,0,0,3.0489,3.0479,3.0487,3.0465,3.0464,3.0474,3.0469,3.0479,3.0478,3.0477,3.048,3.0477,3.0466,3.0459,3.045,3.042,3.0419,3.0404,3.0399,3.0394,3.039,3.0372,3.0365,3.0442,3.0442,3.0442,0,0,3.0468,3.0472,3.0464,3.0458,3.0459,3.0446,3.0474,3.046,3.045,3.0474,3.0454,3.0456,3.0454,3.0427,3.0416,3.0427,3.0369,3.039,3.0387,3.0385,3.0368,3.036,3.0354,3.0439,3.044,3.044,0,0,3.0423,3.0426,3.0407,3.0407,3.0407,3.0414,3.0409,3.0413,3.0415,3.0395,3.0412,3.0401,3.0383,3.038,3.0376,3.0329,3.0341,3.0325,3.0296,3.0277,3.0271,3.0266,3.0247,3.024,3.0322,3.0321,3.0321,0,3.0397,3.038,3.0395,3.038,3.0376,3.0398,3.0378,3.0377,3.0373,3.0369,3.0383,3.0359,3.036,3.0331,3.032,3.0317,3.031,3.0325,3.0271,3.0266,3.0261,3.0243,3.0236,3.0319,3.032,3.032,3.032,0,3.0347,3.0335,3.0319,3.0316,3.031,3.0292,3.0303,3.0296,3.0305,3.031,3.0288,3.029,3.028,3.0274,3.0284,3.0247,3.0254,3.0269,3.0292,3.0251,3.0234,3.0228,3.0316,3.0317,3.0318,3.0318,0,0,3.028,3.0285,3.0279,3.0277,3.0279,3.0269,3.0251,3.0243,3.0235,3.0232,3.0216,3.02,3.0213,3.0209,3.0218,3.0202,3.0162,3.0219,3.0219,3.0207,3.0118,3.0105,3.0097,3.0171,3.017,3.0169,3.0118,0,3.0235,3.0207,3.0219,3.0189,3.0177,3.0197,3.0182,3.018,3.0184,3.0173,3.0177,3.0164,3.0184,3.0181,3.0167,3.017,3.0144,3.0174,3.0154,3.0153,3.0152,3.0089,3.0075,3.0027,3.0111,3.011,3.0109,0,3.0179,3.0173,3.0142,3.0144,3.0139,3.0125,3.0117,3.0108,3.0105,3.0109,3.0103,3.0115,3.0096,3.012,3.0093,3.0113,3.0106,3.0105,3.0104,3.0101,3.0127,3.0082,3.0012,3.0004,3.01,3.01,3.0101,0,3.0131,3.0116,3.0094,3.0092,3.0095,3.0084,3.0084,3.0083,3.0077,3.007,3.0065,3.0056,3.005,3.0041,3.0049,3.0067,3.0019,3.0045,3.002,3.002,3.0008,3.0008,2.9934,3.0006,3.0006,3.0007,3.0007,0,3.0078,3.0057,3.0073,3.0059,3.0036,3.005,3.0026,3.0029,3.0027,3.0013,3.0031,3.0017,3.003,3.0016,3.0023,2.9997,2.9995,2.9996,2.9997,2.9993,2.9993,2.9987,2.999,3.0005,3.0005,3.0005,3.0006,0,3.002,3.003,3.0007,3.0012,3.0012,2.9994,2.9997,2.9984,2.9989,2.9971,2.9968,2.9975,2.996,2.9968,2.9952,2.9957,2.9923,2.993,2.9924,2.9925,2.9899,2.99,2.9817,2.9805,2.9887,2.9886,2.9886,0,2.9984,2.9969,2.9971,2.9964,2.9963,2.9951,2.9944,2.9957,2.995,2.9945,2.9931,2.9918,2.9908,2.9883,2.9886,2.9873,2.9879,2.985,2.9877,2.9872,2.9875,2.9875,2.9873,2.9844,2.9843,2.9843,2.9842,0,2.9919,2.9925,2.9916,2.9908,2.99,2.9894,2.9889,2.9881,2.9894,2.9884,2.987,2.9862,2.9846,2.9832,2.9821,2.9819,2.9831,2.9834,2.9827,2.9821,2.9818,2.9817,2.9907,2.9835,2.9836,2.9836,2.9837,2.9837,2.987,2.9857,2.9856,2.9845,2.9843,2.9838,2.9825,2.9829,2.9817,2.9806,2.9814,2.9796,2.9792,2.9779,2.9775,2.976,2.9771,2.9761,2.9759,2.9755,2.9751,2.9822,2.9758,2.9758,2.9758,2.9758,2.9759,0,2.9805,2.9805,2.9795,2.9788,2.9778,2.9793,2.9788,2.9778,2.9763,2.9759,2.9749,2.973,2.9716,2.9718,2.9704,2.9692,2.9697,2.9687,2.9687,2.9686,2.9743,2.9749,2.9683,2.9683,2.9683,2.9683,2.9683,2.9683,2.9769,2.9746,2.9752,2.9727,2.9728,2.9712,2.9707,2.9702,2.9698,2.9678,2.9667,2.9668,2.9666,2.9652,2.9639,2.9639,2.9632,2.962,2.9622,2.9675,2.9683,2.969,2.9695,2.9619,2.9619,2.9567,2.9566,2.9566]}]]